Tracking 22882 objects as of 18-Apr-2021
HD Live streaming from Space Station
objects crossing your sky now

STARLINK-1545

Track STARLINK-1545 now!
10-day predictions
STARLINK-1545 is classified as:


NORAD ID: 46156
Int'l Code: 2020-057AR
Perigee: 553.1 km
Apogee: 555.6 km
Inclination: 53.1 °
Period: 95.6 minutes
Semi major axis: 6925 km
RCS: Unknown
Launch date: August 18, 2020
Source: United States (US)
Launch site: AIR FORCE EASTERN TEST RANGE (AFETR)
aabbcc
Your satellite tracking list
Your tracking list is empty




NASA's NSSDC Master Catalog

Two Line Element Set (TLE):
1 46156U 20057AR  21108.28220851 -.00000048  00000-0  15707-4 0  9993
2 46156  53.0606  36.0996 0001849  63.2177 296.9001 15.06405263 38342
Source of the keplerian elements: AFSPC